LogoCoinalyze
    Ad-Free Version 主页 市场 资金费率
    期货数据
    • 汇总数据 (币种)
    • 单币图表
    • 全局图表
    提醒
    TA
    Bitcoin Ethereum BNB Ripple Tron Dogecoin ZCash Monero UNUS SED LEO Chainlink Cardano Stellar Lumens Bitcoin Cash Litecoin Hedera Cronos Polkadot Ethereum Classic Algorand Quant Cosmos VeChain Dash Bitcoin SV BitTorrent Terra Decred Tezos Iota The Graph THETA MultiversX Decentraland NEO Chiliz Golem Basic Attention Token Horizen Qtum 0x Beam DigiByte RIF Token FTX Token FUNToken Holo aelf Zilliqa Ontology Nano Enjin Coin Ravencoin Verge Mask Network Siacoin WINk Status Waves IoTeX Power Ledger iExec RLC Steem Kyber Network Crystal Lisk Ardor Ark WOO Network IOST WAX Icon Storj Wanchain Loopring Bitcoin Diamond Augur AdEx Bitcoin Gold OmiseGO NEM MonaCoin BitShares Ren V Systems Komodo Nuls Mithril SOLVE Maker EOS Aion Nebulas HedgeTrade Bread Fetch.ai TomoChain Polygon Fantom Waltonchain GXChain Bytom Metaverse ETP MaidSafeCoin QASH
    排序方式:
    更多
    • API
    • K线形态
    • 捐赠
    • 联系我们
    • 网站地图
    • 隐私政策
    • 免责声明
    • Theme:
    简体中文
    • English
    • Français
    • Русский
    • Deutsch
    • Türkçe
    • Nederlands
    • Português (BR)
    • Español
    • 한국어
    • 日本語
     
    登录 / 注册
    Markets/ Pepe/ PEPE 至 USDT/ PEPEUSDT Bybit
    交易
    WL
    聊天
    统计
    新闻
    ⦷
    AAA
    0.0000034480 58017000.00000000 01:17:31
    0.0000034510 40748100.00000000 01:17:26
    0.0000034510 112300000.00000000 01:17:26
    0.0000034510 109300000.00000000 01:17:26
    0.0000034510 108300000.00000000 01:17:26
    0.0000034510 1405868.00000000 01:17:20
    0.0000034510 3175332.00000000 01:17:20
    0.0000034500 112295656.00000000 01:16:56
    0.0000034500 109300000.00000000 01:16:56
    0.0000034500 109200000.00000000 01:16:56
    0.0000034500 77172268.00000000 01:16:56
    0.0000034500 4406580.00000000 01:16:43
    0.0000034500 27511696.00000000 01:16:43
    0.0000034500 29996067.00000000 01:16:43
    0.0000034500 82303933.00000000 01:16:43
    0.0000034500 109396067.00000000 01:16:43
    0.0000034500 108300000.00000000 01:16:43
    0.0000034500 13302959.00000000 01:16:39
    0.0000034500 9.00000000 01:16:39
    0.0000034490 2350588.00000000 01:16:38
    0.0000034500 3999991.00000000 01:16:38
    0.0000034500 623957.00000000 01:16:38
    0.0000034500 473200.00000000 01:16:38
    0.0000034500 422088.00000000 01:16:38
    0.0000034500 374985.00000000 01:16:38
    0.0000034500 525000.00000000 01:16:38
    0.0000034500 405230.00000000 01:16:38
    0.0000034500 6099551.00000000 01:16:38
    0.0000034500 612018.00000000 01:16:38
    0.0000034500 396338.00000000 01:16:38
    0.0000034500 357566.00000000 01:16:38
    0.0000034500 793276.00000000 01:16:38
    0.0000034490 408575.00000000 01:16:34
    0.0000034480 2903933.00000000 01:16:20
    0.0000034480 2903933.00000000 01:16:15
    0.0000034480 114114876.00000000 01:16:15
    0.0000034480 1129187820.00000000 01:16:15
    0.0000034480 2181819.00000000 01:16:15
    0.0000034480 2526555.00000000 01:16:15
    0.0000034480 2201028.00000000 01:16:15
    0.0000034480 349541.00000000 01:16:15
    0.0000034460 7455807.00000000 01:16:08
    0.0000034470 109200000.00000000 01:16:08
    0.0000034470 40219450.00000000 01:16:08
    0.0000034470 65982473.00000000 01:16:08
    0.0000034470 112300000.00000000 01:16:08
    0.0000034470 65208587.00000000 01:16:08
    0.0000034470 2904776.00000000 01:16:06
    0.0000034470 2440481.00000000 01:16:04
    0.0000034470 2904776.00000000 01:16:04
    0.0000034450 43062649.00000000 01:15:51
    0.0000034460 29047759.00000000 01:14:54
    0.0000034470 33619308.00000000 01:14:46
    0.0000034470 29047759.00000000 01:14:45
    0.0000034470 29047759.00000000 01:14:41
    0.0000034470 108309456.00000000 01:14:36
    0.0000034470 7348414.00000000 01:14:20
    0.0000034470 349301.00000000 01:14:20
    0.0000034470 347685.00000000 01:14:20
    0.0000034450 108300000.00000000 01:14:08
    0.0000034460 512306.00000000 01:13:59
    0.0000034430 59.00000000 01:13:46
    0.0000034430 6024400.00000000 01:13:46
    0.0000034450 5055736.00000000 01:13:34
    0.0000034450 8234237.00000000 01:13:34
    0.0000034450 67285803.00000000 01:13:34
    0.0000034450 32770504.00000000 01:13:31
    0.0000034450 48637145.00000000 01:13:29
    0.0000034450 74328587.00000000 01:13:29
    0.0000034450 33.00000000 01:13:28
    0.0000034450 1627402.00000000 01:13:28
    0.0000034450 2006209.00000000 01:13:28
    0.0000034450 444889.00000000 01:13:28
    0.0000034440 63.00000000 01:13:28
    0.0000034440 321009.00000000 01:13:22
    0.0000034440 783960.00000000 01:13:22
    0.0000034440 861063.00000000 01:13:22
    0.0000034440 899897.00000000 01:13:22
    0.0000034440 361699.00000000 01:13:22
    0.0000034440 744888.00000000 01:13:22
    0.0000034440 383484.00000000 01:13:22
    0.0000034430 2162875.00000000 01:13:08
    0.0000034430 7.00000000 01:13:08
    0.0000034430 467426.00000000 01:13:02
    0.0000034430 19003991.00000000 01:13:02
    0.0000034430 376783.00000000 01:13:02
    0.0000034420 7405583.00000000 01:12:58
    0.0000034420 72216940.00000000 01:12:53
    0.0000034420 1115360.00000000 01:12:53
    0.0000034420 402281.00000000 01:12:53
    0.0000034410 14554700.00000000 01:12:53
    0.0000034400 111504344.00000000 01:12:37
    0.0000034400 108309456.00000000 01:12:37
    0.0000034410 81.00000000 01:12:32
    0.0000034410 72864700.00000000 01:12:32
    0.0000034410 108300000.00000000 01:12:32
    0.0000034410 111500000.00000000 01:12:32
    0.0000034400 113062500.00000000 01:12:28
    0.0000034400 21956713.00000000 01:12:28
    0.0000034400 1081150.00000000 01:12:28
    注销
    AAA
    帮助
    🙂 🤣 😎 🤗 😛 😉 😜 🤑 🤔 😑 😴 😕 🙃 😲 😇 🙁 😢 😬 😟 😠 🕺 🏃 💪 ✌ 👌 👍 👎 👏 👋 🤝 🍺 🍻 🐋 🐟 🦈 🗽 🚄 ✈ 🛑 🚀 🏦 🌚 ⭐ 🌞 ⚡ 🏆 💰 💲 🔨 ❓ ❗ 💯 🔶 🏁
    ☺
    登录 或 注册 并聊天
    24 小时
    变动
    -0.69%
    成交量
    1,116,542,191,687
    最高
    0.0000035030
    最低
    0.0000033670
    7 天
    变动
    -10.56%
    成交量
    9,360,179,910,684
    最高
    0.0000040160
    最低
    0.0000033640
    30 天
    变动
    +18.57%
    成交量
    49,573,347,840,333
    最高
    0.0000045550
    最低
    0.0000025300
    DOGE, SHIB, PEPE, or Something Else: Which Meme Coin Can Make History in September? (3 AIs Weigh In)
    "DOGE remains the most likely to record the largest move in dollar terms and lead the entire sector," ChatGPT stated.
    cryptopotato.com
    Sept 3, 2026 00:41
    Pepe price rallies 25% as whale demand and futures interest surge
    Key takeaways Pepe has gained 25% this week, including a combined 22% advance over the previous two days. Seven whale transactions worth more than $1 million each occurred Thursday, the highest...
    coinjournal.net
    Aug 21, 2026 08:41
    PEPE Supply on Exchanges Just Took a Massive Hit – What’s Next?
    A drop in PEPE exchange balances has added to bullish expectations despite muted trader interest.
    cryptopotato.com
    Aug 6, 2026 20:02
    PEPE Exchange Outflows Hit Nearly 2-Year High as Whales Accumulate
    Pepe (PEPE) recorded its largest single-day exchange outflow since November 2024, with 4.54 trillion tokens leaving trading platforms, signaling that holders are moving supply away from immediate...
    beincrypto.com
    Aug 6, 2026 04:57
    Meme Coin Based on White House Shooter Conspiracy Rallies 320%
    $HENRY surged 300% after a 2023 Pepe tweet appeared to name the White House shooter, fueling a viral time-travel meme. The post Meme Coin Based on White House Shooter Conspiracy Rallies 320%...
    beincrypto.com
    Apr 27, 2026 16:11
    PEPE surges 4% as market sentiment improves, eyes Key resistance breakout
    Key takeaways Pepe extends gains on Wednesday, stretching its rally from the 50-day EMA. Derivatives data show heightened retail activity as risk-on sentiment returns to the market. Pepe (PEPE) is...
    coinjournal.net
    Apr 22, 2026 11:44
    Why The PEPE Price Could Stage A 55X Rally To Reach New $0.0001 ATH
    The PEPE price has now started to edge back into bullish conversations after the recent inflows into the crypto market. The last time PEPE’s weekly chart printed the kind of structure now...
    newsbtc.com
    Apr 21, 2026 15:30
    Pepe (PEPE) surges 9%, drawing interest from whales
    Key takeaways PEPE is up 9% in the last 24 hours, making it one of the best performers among the top 50 cryptocurrencies by market cap. The rally comes amid renewed interest from whales and retail...
    coinjournal.net
    Apr 16, 2026 07:40
    Murad Says SPX6900 (SPX) Is Primed for a Rally — Is He Right This Time?
    Crypto influencer Murad Mahmudov claims SPX6900 (SPX) is stabilizing at the same market cap level where Dogecoin (DOGE) and Pepe (PEPE) consolidated before their explosive rallies. The...
    beincrypto.com
    Apr 5, 2026 21:36
    The Shiba Inu Of This Cycle: Analyst Shares Why It Is Better To Buy PEPE Now
    In the bull market cycle of 2021-2022, the Shiba Inu meme coin made waves in a way that changed the face of meme coins forever. This came after Dogecoin’s initial 36,000% rally, and Shiba Inu...
    newsbtc.com
    Apr 4, 2026 07:30
    PEPE Explodes by 18% Amid Altcoin Rally, BTC Tapped $74K: Market Watch
    The frog-themed meme coin is today's biggest gainer, followed by TAO, DOT, and BONK.
    cryptopotato.com
    Mar 16, 2026 10:56
    Should PEPE traders brace for volatility as short squeeze potential builds?
    The memecoin market has seen its collective market capitalization drop by 48% over the past year, and 6.9% over the past month, according to CoinMarketCap. According to Glassnode, the memecoin...
    ambcrypto.com
    Mar 7, 2026 18:00
    只需在聊天中输入命令即可。将 nick1 替换为实际的昵称。
    • /ignore nick1 忽略聊天用户
    • /unignore nick1 取消忽略聊天用户
    • /ignorelist 显示已忽略的聊天用户